Change the Weather History Date:

Thursday, October 13, 2011

  Actual Average Record
Temperature  
Mean Temperature 64 °F 58 °F  
Max Temperature 82 °F 73 °F 88 °F (1950)
Min Temperature 46 °F 42 °F 26 °F (1997)
Degree Days  
Heating Degree Days 1    
Month to date heating degree days  
Since 1 July heating degree days  
Cooling Degree Days 0    
Month to date cooling degree days  
Year to date cooling degree days  
Growing Degree Days 14 (Base 50)    
Moisture  
Dew Point 27 °F    
Average Humidity 32    
Maximum Humidity 58    
Minimum Humidity 8    
Precipitation  
Precipitation 0.00 in 0.03 in 0.32 in (1987)
Month to date precipitation 0.43  
Year to date precipitation 11.60  
Sea Level Pressure  
Sea Level Pressure 29.96 in    
Wind  
Wind Speed 5 mph (SSW)    
Max Wind Speed 9 mph    
Max Gust Speed -    
Visibility 10 miles    
Events      
T = Trace of Precipitation, MM = Missing Value Source: NWS Daily Summary

Daily Weather History Graph

Daily Weather History Graph

Search for Another Location

Airport or City:

Trip Planner

Search our weather history database for the weather conditions in past years. The results will help you decide how hot, cold, wet, or windy it might be!

Date:

Astronomy

Oct. 13, 2011 Rise Set
Actual Time 6:33 AM MST 5:57 PM MST
Civil Twilight 6:08 AM MST 6:23 PM MST
Nautical Twilight 5:38 AM MST 6:52 PM MST
Astronomical Twilight 5:09 AM MST 7:21 PM MST
Moon 6:43 PM MST (10/13) 8:02 AM MST (10/13)
Length of Visible Light 12h 14m
Length of Day
11h 24m
Full, 97% of the Moon is Illuminated
Oct 13
Full
Oct 19
Last Quarter
Oct 26
New
Nov 2
First Quarter
Nov 10
Full

Hourly Weather History & Observations

Time (MST) Temp. Windchill Dew Point Humidity Pressure Visibility Wind Dir Wind Speed Gust Speed Precip Events Conditions
12:53 AM 51.1 °F - 33.1 °F 50% 29.98 in 10.0 mi South 5.8 mph - N/A   Clear
1:53 AM 51.1 °F - 32.0 °F 48% 29.97 in 10.0 mi SSW 4.6 mph - N/A   Clear
2:53 AM 48.0 °F - 32.0 °F 54% 29.97 in 10.0 mi South 6.9 mph - N/A   Clear
3:53 AM 48.0 °F - 32.0 °F 54% 29.97 in 10.0 mi SSW 3.5 mph - N/A   Clear
4:53 AM 46.0 °F 43.1 °F 32.0 °F 58% 29.98 in 10.0 mi South 5.8 mph - N/A   Clear
5:53 AM 46.0 °F 41.4 °F 30.9 °F 56% 29.99 in 10.0 mi SSW 9.2 mph - N/A   Clear
6:53 AM 46.4 °F 44.3 °F 30.2 °F 53% 30.17 in 10.0 mi South 4.6 mph - N/A   Clear
7:53 AM 53.1 °F - 34.0 °F 48% 30.01 in 10.0 mi Calm Calm - N/A   Clear
8:53 AM 62.1 °F - 30.0 °F 30% 30.01 in 10.0 mi Calm Calm - N/A   Clear
9:53 AM 66.9 °F - 28.0 °F 23% 30.01 in 10.0 mi Variable 5.8 mph - N/A   Clear
10:53 AM 72.0 °F - 27.0 °F 19% 29.99 in 10.0 mi North 5.8 mph - N/A   Clear
11:53 AM 77.0 °F - 24.1 °F 14% 29.96 in 10.0 mi ENE 5.8 mph - N/A   Clear
12:53 PM 79.0 °F - 21.9 °F 12% 29.92 in 10.0 mi Variable 4.6 mph - N/A   Clear
1:53 PM 81.0 °F - 21.9 °F 11% 29.88 in 10.0 mi Variable 4.6 mph - N/A   Clear
2:53 PM 81.0 °F - 17.1 °F 9% 29.88 in 10.0 mi Variable 4.6 mph - N/A   Clear
3:53 PM 82.9 °F - 15.1 °F 8% 29.86 in 10.0 mi NNE 3.5 mph - N/A   Clear
4:53 PM 81.0 °F - 16.0 °F 9% 29.86 in 10.0 mi NNW 3.5 mph - N/A   Clear
5:53 PM 75.0 °F - 21.9 °F 14% 29.88 in 10.0 mi WNW 3.5 mph - N/A   Clear
6:53 PM 62.1 °F - 28.0 °F 28% 29.92 in 10.0 mi South 3.5 mph - N/A   Clear
7:53 PM 63.0 °F - 25.0 °F 24% 29.91 in 10.0 mi South 9.2 mph - N/A   Clear
8:53 PM 62.6 °F - 26.6 °F 26% 30.09 in 9.0 mi South 8.1 mph - N/A   Clear
9:53 PM 55.9 °F - 28.9 °F 36% 29.92 in 10.0 mi Calm Calm - N/A   Clear
10:53 PM 55.0 °F - 30.9 °F 40% 29.91 in 6.0 mi Calm Calm - N/A   Haze
11:53 PM 53.1 °F - 30.9 °F 43% 29.91 in 10.0 mi South 3.5 mph - N/A   Clear